This demonstration page uses our WeatherBlox Daily Observations layout. Learn more.

Left ArrowRight Arrow

41.86663, -103.66717

Hourly Observations for September 1, 2018

Temp ( °F °C ) Dew Point ( °F °C ) Humidity (%) Winds ( mph kmh ) Pressure ( in mb ) Visibility ( mi km ) Precip ( " mm )
12:53 am 00:53 Clear 61 16.1 52 11.1 72 72 E 9 15 29.80 1009 10 16 N/A
1:53 am 01:53 Clear 60 15.6 52 11.1 75 75 ESE 8 13 29.81 1009 10 16 N/A
2:53 am 02:53 Clear 56 13.3 53 11.7 90 90 ESE 9 15 29.82 1010 10 16 N/A
3:53 am 03:53 Clear 56 13.3 53 11.7 90 90 ENE 8 13 29.82 1010 10 16 N/A
4:53 am 04:53 Clear 56 13.3 53 11.7 90 90 ENE 6 9 29.84 1010 10 16 N/A
5:53 am 05:53 Clear 54 12.2 52 11.1 93 93 N N/A 29.86 1011 10 16 N/A
6:53 am 06:53 Sunny 56 13.3 53 11.7 90 90 N N/A 29.88 1012 10 16 N/A
7:53 am 07:53 Sunny 62 16.7 54 12.2 75 75 NNE 3 6 29.87 1012 10 16 N/A
8:53 am 08:53 Sunny 64 17.8 56 13.3 75 75 E 7 11 29.90 1012 10 16 N/A
9:53 am 09:53 Sunny 70 21.1 57 13.9 64 64 ESE 13 20 29.87 1012 10 16 N/A
10:53 am 10:53 Sunny 73 22.8 57 13.9 57 57 SE 9 15 29.85 1011 10 16 N/A
11:53 am 11:53 Sunny 77 25 58 14.4 52 52 VRB 7 11 29.82 1010 10 16 N/A
12:53 pm 12:53 Sunny 81 27.2 54 12.2 39 39 VRB 5 7 29.81 1009 10 16 N/A
1:53 pm 13:53 Sunny 84 28.9 56 13.3 38 38 ESE 7 11 29.78 1009 10 16 N/A
2:53 pm 14:53 Sunny 84 28.9 55 12.8 37 37 E 9 15 29.76 1008 10 16 N/A
3:53 pm 15:53 Sunny 79 26.1 59 15 50 50 ESE 8 13 29.76 1008 10 16 N/A
4:53 pm 16:53 Sunny 81 27.2 57 13.9 44 44 SE 13 20 29.74 1007 10 16 N/A
5:53 pm 17:53 Sunny 79 26.1 49 9.4 35 35 SE 10 17 29.75 1007 10 16 N/A
6:53 pm 18:53 Sunny 75 23.9 55 12.8 50 50 SE 9 15 29.76 1008 10 16 N/A
7:53 pm 19:53 Clear 69 20.6 56 13.3 63 63 ESE 6 9 29.76 1008 10 16 N/A
8:53 pm 20:53 Clear 67 19.4 53 11.7 61 61 S 10 17 29.81 1010 10 16 N/A
9:53 pm 21:53 Clear 65 18.3 51 10.6 61 61 SSE 7 11 29.81 1010 10 16 N/A
10:53 pm 22:53 Clear 60 15.6 52 11.1 75 75 ESE 8 13 29.83 1010 10 16 N/A
11:53 pm 23:53 Clear 59 15 52 11.1 78 78 E 3 6 29.83 1010 10 16 N/A

Powered by AerisWeather